Year,Month,Day,Hour,Minute,Value (Times are PST for temperature in C)
2011,11,28,00,00,5.20
2011,11,28,00,01,5.10
2011,11,28,00,02,5.10
2011,11,28,00,03,5.10
2011,11,28,00,04,5.10
2011,11,28,00,05,5.10
2011,11,28,00,06,5.20
2011,11,28,00,07,5.20
2011,11,28,00,08,5.20
2011,11,28,00,09,5.20
2011,11,28,00,10,5.20
2011,11,28,00,11,5.20
2011,11,28,00,12,5.30
2011,11,28,00,13,5.30
2011,11,28,00,14,5.30
2011,11,28,00,15,5.30
2011,11,28,00,16,5.30
2011,11,28,00,17,5.30
2011,11,28,00,18,5.30
2011,11,28,00,19,5.30
2011,11,28,00,20,5.30
2011,11,28,00,21,5.30
2011,11,28,00,22,5.30
2011,11,28,00,23,5.30
2011,11,28,00,24,5.30
2011,11,28,00,25,5.20
2011,11,28,00,26,5.20
2011,11,28,00,27,5.20
2011,11,28,00,28,5.30
2011,11,28,00,29,5.30
2011,11,28,00,30,5.30
2011,11,28,00,31,5.30
2011,11,28,00,32,5.30
2011,11,28,00,33,5.20
2011,11,28,00,34,5.20
2011,11,28,00,35,5.20
2011,11,28,00,36,5.20
2011,11,28,00,37,5.20
2011,11,28,00,38,5.20
2011,11,28,00,39,5.10
2011,11,28,00,40,5.10
2011,11,28,00,41,5.00
2011,11,28,00,42,5.00
2011,11,28,00,43,4.90
2011,11,28,00,44,4.90
2011,11,28,00,45,4.80
2011,11,28,00,46,4.70
2011,11,28,00,47,4.70
2011,11,28,00,48,4.70
2011,11,28,00,49,4.60
2011,11,28,00,50,4.60
2011,11,28,00,51,4.50
2011,11,28,00,52,4.40
2011,11,28,00,53,4.40
2011,11,28,00,54,4.30
2011,11,28,00,55,4.30
2011,11,28,00,56,4.20
2011,11,28,00,57,4.10
2011,11,28,00,58,4.10
2011,11,28,00,59,4.00
2011,11,28,01,00,3.90
2011,11,28,01,01,3.80
2011,11,28,01,02,3.80
2011,11,28,01,03,3.70
2011,11,28,01,04,3.60
2011,11,28,01,05,3.50
2011,11,28,01,06,3.40
2011,11,28,01,07,3.30
2011,11,28,01,08,3.20
2011,11,28,01,09,3.10
2011,11,28,01,10,3.00
2011,11,28,01,11,3.00
2011,11,28,01,12,2.90
2011,11,28,01,13,2.90
2011,11,28,01,14,2.90
2011,11,28,01,15,2.90
2011,11,28,01,16,2.90
2011,11,28,01,17,2.90
2011,11,28,01,18,2.90
2011,11,28,01,19,2.80
2011,11,28,01,20,2.80
2011,11,28,01,21,2.70
2011,11,28,01,22,2.60
2011,11,28,01,23,2.50
2011,11,28,01,24,2.40
2011,11,28,01,25,2.40
2011,11,28,01,26,2.30
2011,11,28,01,27,2.20
2011,11,28,01,28,2.20
2011,11,28,01,29,2.10
2011,11,28,01,30,2.10
2011,11,28,01,31,2.10
2011,11,28,01,32,2.00
2011,11,28,01,33,2.00
2011,11,28,01,34,2.00
2011,11,28,01,35,1.90
2011,11,28,01,36,1.90
2011,11,28,01,37,1.90
2011,11,28,01,38,1.80
2011,11,28,01,39,1.80
2011,11,28,01,40,1.80
2011,11,28,01,41,1.70
2011,11,28,01,42,1.70
2011,11,28,01,43,1.70
2011,11,28,01,44,1.60
2011,11,28,01,45,1.60
2011,11,28,01,46,1.60
2011,11,28,01,47,1.50
2011,11,28,01,48,1.50
2011,11,28,01,49,1.40
2011,11,28,01,50,1.40
2011,11,28,01,51,1.30
2011,11,28,01,52,1.30
2011,11,28,01,53,1.30
2011,11,28,01,54,1.30
2011,11,28,01,55,1.30
2011,11,28,01,56,1.30
2011,11,28,01,57,1.30
2011,11,28,01,58,1.30
2011,11,28,01,59,1.30
2011,11,28,02,00,1.30
2011,11,28,02,01,1.30
2011,11,28,02,02,1.30
2011,11,28,02,03,1.30
2011,11,28,02,04,1.30
2011,11,28,02,05,1.30
2011,11,28,02,06,1.30
2011,11,28,02,07,1.30
2011,11,28,02,08,1.30
2011,11,28,02,09,1.30
2011,11,28,02,10,1.30
2011,11,28,02,11,1.40
2011,11,28,02,12,1.50
2011,11,28,02,13,1.50
2011,11,28,02,14,1.60
2011,11,28,02,15,1.70
2011,11,28,02,16,1.70
2011,11,28,02,17,1.80
2011,11,28,02,18,1.80
2011,11,28,02,19,1.90
2011,11,28,02,20,1.90
2011,11,28,02,21,1.90
2011,11,28,02,22,1.90
2011,11,28,02,23,1.90
2011,11,28,02,24,1.80
2011,11,28,02,25,1.60
2011,11,28,02,26,1.50
2011,11,28,02,27,1.40
2011,11,28,02,28,1.30
2011,11,28,02,29,1.30
2011,11,28,02,30,1.30
2011,11,28,02,31,1.20
2011,11,28,02,32,1.20
2011,11,28,02,33,1.10
2011,11,28,02,34,1.10
2011,11,28,02,35,1.00
2011,11,28,02,36,1.00
2011,11,28,02,37,0.90
2011,11,28,02,38,0.90
2011,11,28,02,39,0.80
2011,11,28,02,40,0.80
2011,11,28,02,41,0.80
2011,11,28,02,42,0.70
2011,11,28,02,43,0.70
2011,11,28,02,44,0.70
2011,11,28,02,45,0.70
2011,11,28,02,46,0.60
2011,11,28,02,47,0.60
2011,11,28,02,48,0.60
2011,11,28,02,49,0.60
2011,11,28,02,50,0.60
2011,11,28,02,51,0.50
2011,11,28,02,52,0.50
2011,11,28,02,53,0.50
2011,11,28,02,54,0.50
2011,11,28,02,55,0.40
2011,11,28,02,56,0.40
2011,11,28,02,57,0.40
2011,11,28,02,58,0.40
2011,11,28,02,59,0.40
2011,11,28,03,00,0.40
2011,11,28,03,01,0.40
2011,11,28,03,02,0.50
2011,11,28,03,03,0.50
2011,11,28,03,04,0.60
2011,11,28,03,05,0.60
2011,11,28,03,06,0.70
2011,11,28,03,07,0.70
2011,11,28,03,08,0.80
2011,11,28,03,09,0.80
2011,11,28,03,10,0.80
2011,11,28,03,11,0.70
2011,11,28,03,12,0.70
2011,11,28,03,13,0.70
2011,11,28,03,14,0.60
2011,11,28,03,15,0.60
2011,11,28,03,16,0.50
2011,11,28,03,17,0.40
2011,11,28,03,18,0.40
2011,11,28,03,19,0.30
2011,11,28,03,20,0.30
2011,11,28,03,21,0.30
2011,11,28,03,22,0.30
2011,11,28,03,23,0.30
2011,11,28,03,24,0.30
2011,11,28,03,25,0.20
2011,11,28,03,26,0.20
2011,11,28,03,27,0.20
2011,11,28,03,28,0.20
2011,11,28,03,29,0.20
2011,11,28,03,30,0.20
2011,11,28,03,31,0.20
2011,11,28,03,32,0.20
2011,11,28,03,33,0.20
2011,11,28,03,34,0.30
2011,11,28,03,35,0.30
2011,11,28,03,36,0.30
2011,11,28,03,37,0.30
2011,11,28,03,38,0.30
2011,11,28,03,39,0.40
2011,11,28,03,40,0.40
2011,11,28,03,41,0.40
2011,11,28,03,42,0.30
2011,11,28,03,43,0.30
2011,11,28,03,44,0.20
2011,11,28,03,45,0.20
2011,11,28,03,46,0.10
2011,11,28,03,47,0.10
2011,11,28,03,48,0.10
2011,11,28,03,49,0.10
2011,11,28,03,50,0.10
2011,11,28,03,51,0.20
2011,11,28,03,52,0.20
2011,11,28,03,53,0.20
2011,11,28,03,54,0.20
2011,11,28,03,55,0.20
2011,11,28,03,56,0.20
2011,11,28,03,57,0.20
2011,11,28,03,58,0.10
2011,11,28,03,59,0.10
2011,11,28,04,00,0.10
2011,11,28,04,01,0.10
2011,11,28,04,02,0.10
2011,11,28,04,03,0.10
2011,11,28,04,04,0.10
2011,11,28,04,05,0.10
2011,11,28,04,06,0.10
2011,11,28,04,07,0.10
2011,11,28,04,08,0.10
2011,11,28,04,09,0.10
2011,11,28,04,10,0.20
2011,11,28,04,11,0.10
2011,11,28,04,12,0.10
2011,11,28,04,13,0.10
2011,11,28,04,14,0.10
2011,11,28,04,15,0.10
2011,11,28,04,16,0.10
2011,11,28,04,17,0.10
2011,11,28,04,18,0.10
2011,11,28,04,19,0.10
2011,11,28,04,20,0.10
2011,11,28,04,21,0.20
2011,11,28,04,22,0.20
2011,11,28,04,23,0.20
2011,11,28,04,24,0.30
2011,11,28,04,25,0.30
2011,11,28,04,26,0.40
2011,11,28,04,27,0.50
2011,11,28,04,28,0.50
2011,11,28,04,29,0.60
2011,11,28,04,30,0.60
2011,11,28,04,31,0.60
2011,11,28,04,32,0.60
2011,11,28,04,33,0.60
2011,11,28,04,34,0.60
2011,11,28,04,35,0.60
2011,11,28,04,36,0.60
2011,11,28,04,37,0.60
2011,11,28,04,38,0.60
2011,11,28,04,39,0.50
2011,11,28,04,40,0.50
2011,11,28,04,41,0.50
2011,11,28,04,42,0.50
2011,11,28,04,43,0.50
2011,11,28,04,44,0.60
2011,11,28,04,45,0.60
2011,11,28,04,46,0.60
2011,11,28,04,47,0.60
2011,11,28,04,48,0.60
2011,11,28,04,49,0.60
2011,11,28,04,50,0.60
2011,11,28,04,51,0.60
2011,11,28,04,52,0.60
2011,11,28,04,53,0.60
2011,11,28,04,54,0.60
2011,11,28,04,55,0.60
2011,11,28,04,56,0.60
2011,11,28,04,57,0.70
2011,11,28,04,58,0.70
2011,11,28,04,59,0.70
2011,11,28,05,00,0.80
2011,11,28,05,01,0.80
2011,11,28,05,02,0.80
2011,11,28,05,03,0.80
2011,11,28,05,04,0.70
2011,11,28,05,05,0.70
2011,11,28,05,06,0.70
2011,11,28,05,07,0.60
2011,11,28,05,08,0.60
2011,11,28,05,09,0.60
2011,11,28,05,10,0.60
2011,11,28,05,11,0.60
2011,11,28,05,12,0.60
2011,11,28,05,13,0.60
2011,11,28,05,14,0.60
2011,11,28,05,15,0.60
2011,11,28,05,16,0.60
2011,11,28,05,17,0.70
2011,11,28,05,18,0.70
2011,11,28,05,19,0.70
2011,11,28,05,20,0.70
2011,11,28,05,21,0.70
2011,11,28,05,22,0.70
2011,11,28,05,23,0.80
2011,11,28,05,24,0.80
2011,11,28,05,25,0.80
2011,11,28,05,26,0.80
2011,11,28,05,27,0.80
2011,11,28,05,28,0.80
2011,11,28,05,29,0.80
2011,11,28,05,30,0.80
2011,11,28,05,31,0.80
2011,11,28,05,32,0.80
2011,11,28,05,33,0.90
2011,11,28,05,34,0.90
2011,11,28,05,35,0.90
2011,11,28,05,36,1.00
2011,11,28,05,37,1.00
2011,11,28,05,38,1.00
2011,11,28,05,39,1.00
2011,11,28,05,40,1.00
2011,11,28,05,41,1.00
2011,11,28,05,42,1.00
2011,11,28,05,43,1.00
2011,11,28,05,44,1.00
2011,11,28,05,45,0.90
2011,11,28,05,46,0.90
2011,11,28,05,47,0.90
2011,11,28,05,48,0.90
2011,11,28,05,49,0.90
2011,11,28,05,50,0.90
2011,11,28,05,51,0.90
2011,11,28,05,52,0.90
2011,11,28,05,53,0.90
2011,11,28,05,54,0.80
2011,11,28,05,55,0.80
2011,11,28,05,56,0.80
2011,11,28,05,57,0.80
2011,11,28,05,58,0.80
2011,11,28,05,59,0.80
2011,11,28,06,00,0.80
2011,11,28,06,01,0.80
2011,11,28,06,02,0.80
2011,11,28,06,03,0.80
2011,11,28,06,04,0.70
2011,11,28,06,05,0.70
2011,11,28,06,06,0.70
2011,11,28,06,07,0.70
2011,11,28,06,08,0.70
2011,11,28,06,09,0.70
2011,11,28,06,10,0.70
2011,11,28,06,11,0.80
2011,11,28,06,12,0.80
2011,11,28,06,13,0.90
2011,11,28,06,14,0.90
2011,11,28,06,15,0.90
2011,11,28,06,16,0.90
2011,11,28,06,17,0.90
2011,11,28,06,18,0.90
2011,11,28,06,19,0.90
2011,11,28,06,20,0.90
2011,11,28,06,21,0.90
2011,11,28,06,22,0.90
2011,11,28,06,23,0.90
2011,11,28,06,24,0.80
2011,11,28,06,25,0.80
2011,11,28,06,26,0.90
2011,11,28,06,27,0.90
2011,11,28,06,28,0.90
2011,11,28,06,29,0.90
2011,11,28,06,30,0.90
2011,11,28,06,31,1.00
2011,11,28,06,32,1.00
2011,11,28,06,33,1.00
2011,11,28,06,34,0.90
2011,11,28,06,35,0.90
2011,11,28,06,36,0.90
2011,11,28,06,37,0.90
2011,11,28,06,38,0.90
2011,11,28,06,39,0.90
2011,11,28,06,40,0.90
2011,11,28,06,41,0.90
2011,11,28,06,42,0.90
2011,11,28,06,43,0.90
2011,11,28,06,44,0.90
2011,11,28,06,45,0.80
2011,11,28,06,46,0.80
2011,11,28,06,47,0.80
2011,11,28,06,48,0.80
2011,11,28,06,49,0.80
2011,11,28,06,50,0.80
2011,11,28,06,51,0.80
2011,11,28,06,52,0.80
2011,11,28,06,53,0.80
2011,11,28,06,54,0.80
2011,11,28,06,55,0.80
2011,11,28,06,56,0.80
2011,11,28,06,57,0.80
2011,11,28,06,58,0.80
2011,11,28,06,59,0.80
2011,11,28,07,00,0.80
2011,11,28,07,01,0.80
2011,11,28,07,02,0.80
2011,11,28,07,03,0.80
2011,11,28,07,04,0.80
2011,11,28,07,05,0.70
2011,11,28,07,06,0.70
2011,11,28,07,07,0.70
2011,11,28,07,08,0.70
2011,11,28,07,09,0.60
2011,11,28,07,10,0.60
2011,11,28,07,11,0.60
2011,11,28,07,12,0.60
2011,11,28,07,13,0.60
2011,11,28,07,14,0.60
2011,11,28,07,15,0.60
2011,11,28,07,16,0.60
2011,11,28,07,17,0.60
2011,11,28,07,18,0.60
2011,11,28,07,19,0.60
2011,11,28,07,20,0.60
2011,11,28,07,21,0.60
2011,11,28,07,22,0.60
2011,11,28,07,23,0.60
2011,11,28,07,24,0.60
2011,11,28,07,25,0.60
2011,11,28,07,26,0.60
2011,11,28,07,27,0.70
2011,11,28,07,28,0.70
2011,11,28,07,29,0.70
2011,11,28,07,30,0.70
2011,11,28,07,31,0.80
2011,11,28,07,32,0.80
2011,11,28,07,33,0.80
2011,11,28,07,34,0.80
2011,11,28,07,35,0.80
2011,11,28,07,36,0.80
2011,11,28,07,37,0.80
2011,11,28,07,38,0.80
2011,11,28,07,39,0.90
2011,11,28,07,40,0.90
2011,11,28,07,41,0.90
2011,11,28,07,42,0.90
2011,11,28,07,43,1.00
2011,11,28,07,44,1.00
2011,11,28,07,45,1.00
2011,11,28,07,46,1.10
2011,11,28,07,47,1.10
2011,11,28,07,48,1.10
2011,11,28,07,49,1.10
2011,11,28,07,50,1.00
2011,11,28,07,51,1.00
2011,11,28,07,52,1.00
2011,11,28,07,53,1.00
2011,11,28,07,54,0.90
2011,11,28,07,55,0.90
2011,11,28,07,56,0.90
2011,11,28,07,57,0.90
2011,11,28,07,58,0.90
2011,11,28,07,59,1.00
2011,11,28,08,00,1.00
2011,11,28,08,01,1.00
2011,11,28,08,02,1.00
2011,11,28,08,03,1.10
2011,11,28,08,04,1.10
2011,11,28,08,05,1.10
2011,11,28,08,06,1.10
2011,11,28,08,07,1.10
2011,11,28,08,08,1.10
2011,11,28,08,09,1.10
2011,11,28,08,10,1.10
2011,11,28,08,11,1.00
2011,11,28,08,12,1.00
2011,11,28,08,13,1.00
2011,11,28,08,14,0.90
2011,11,28,08,15,0.90
2011,11,28,08,16,0.90
2011,11,28,08,17,0.90
2011,11,28,08,18,0.90
2011,11,28,08,19,0.90
2011,11,28,08,20,0.90
2011,11,28,08,21,0.90
2011,11,28,08,22,0.90
2011,11,28,08,23,1.00
2011,11,28,08,24,1.00
2011,11,28,08,25,1.10
2011,11,28,08,26,1.10
2011,11,28,08,27,1.20
2011,11,28,08,28,1.20
2011,11,28,08,29,1.20
2011,11,28,08,30,1.30
2011,11,28,08,31,1.30
2011,11,28,08,32,1.30
2011,11,28,08,33,1.30
2011,11,28,08,34,1.30
2011,11,28,08,35,1.40
2011,11,28,08,36,1.40
2011,11,28,08,37,1.50
2011,11,28,08,38,1.50
2011,11,28,08,39,1.50
2011,11,28,08,40,1.60
2011,11,28,08,41,1.60
2011,11,28,08,42,1.60
2011,11,28,08,43,1.50
2011,11,28,08,44,1.50
2011,11,28,08,45,1.50
2011,11,28,08,46,1.50
2011,11,28,08,47,1.50
2011,11,28,08,48,1.50
2011,11,28,08,49,1.50
2011,11,28,08,50,1.60
2011,11,28,08,51,1.60
2011,11,28,08,52,1.70
2011,11,28,08,53,1.70
2011,11,28,08,54,1.80
2011,11,28,08,55,1.80
2011,11,28,08,56,1.90
2011,11,28,08,57,1.90
2011,11,28,08,58,1.90
2011,11,28,08,59,2.00
2011,11,28,09,00,2.00
2011,11,28,09,01,2.00
2011,11,28,09,02,2.00
2011,11,28,09,03,2.10
2011,11,28,09,04,2.10
2011,11,28,09,05,2.10
2011,11,28,09,06,2.10
2011,11,28,09,07,2.20
2011,11,28,09,08,2.20
2011,11,28,09,09,2.30
2011,11,28,09,10,2.40
2011,11,28,09,11,2.60
2011,11,28,09,12,2.60
2011,11,28,09,13,2.80
2011,11,28,09,14,2.90
2011,11,28,09,15,3.00
2011,11,28,09,16,3.00
2011,11,28,09,17,3.10
2011,11,28,09,18,3.20
2011,11,28,09,19,3.20
2011,11,28,09,20,3.30
2011,11,28,09,21,3.40
2011,11,28,09,22,3.40
2011,11,28,09,23,3.50
2011,11,28,09,24,3.50
2011,11,28,09,25,3.60
2011,11,28,09,26,3.60
2011,11,28,09,27,3.70
2011,11,28,09,28,3.70
2011,11,28,09,29,3.70
2011,11,28,09,30,3.80
2011,11,28,09,31,3.80
2011,11,28,09,32,3.80
2011,11,28,09,33,3.80
2011,11,28,09,34,3.80
2011,11,28,09,35,3.90
2011,11,28,09,36,3.90
2011,11,28,09,37,3.90
2011,11,28,09,38,4.00
2011,11,28,09,39,4.00
2011,11,28,09,40,4.10
2011,11,28,09,41,4.10
2011,11,28,09,42,4.10
2011,11,28,09,43,4.10
2011,11,28,09,44,4.20
2011,11,28,09,45,4.20
2011,11,28,09,46,4.20
2011,11,28,09,47,4.20
2011,11,28,09,48,4.30
2011,11,28,09,49,4.30
2011,11,28,09,50,4.40
2011,11,28,09,51,4.40
2011,11,28,09,52,4.40
2011,11,28,09,53,4.40
2011,11,28,09,54,4.50
2011,11,28,09,55,4.50
2011,11,28,09,56,4.50
2011,11,28,09,57,4.50
2011,11,28,09,58,4.60
2011,11,28,09,59,4.60
2011,11,28,10,00,4.60
2011,11,28,10,01,4.60
2011,11,28,10,02,4.70
2011,11,28,10,03,4.70
2011,11,28,10,04,4.70
2011,11,28,10,05,4.80
2011,11,28,10,06,4.80
2011,11,28,10,07,4.90
2011,11,28,10,08,4.90
2011,11,28,10,09,5.00
2011,11,28,10,10,5.00
2011,11,28,10,11,5.10
2011,11,28,10,12,5.10
2011,11,28,10,13,5.10
2011,11,28,10,14,5.00
2011,11,28,10,15,5.00
2011,11,28,10,16,5.00
2011,11,28,10,17,5.10
2011,11,28,10,18,5.10
2011,11,28,10,19,5.10
2011,11,28,10,20,5.10
2011,11,28,10,21,5.10
2011,11,28,10,22,5.20
2011,11,28,10,23,5.20
2011,11,28,10,24,5.20
2011,11,28,10,25,5.30
2011,11,28,10,26,5.30
2011,11,28,10,27,5.30
2011,11,28,10,28,5.30
2011,11,28,10,29,5.30
2011,11,28,10,30,5.30
2011,11,28,10,31,5.30
2011,11,28,10,32,5.30
2011,11,28,10,33,5.30
2011,11,28,10,34,5.30
2011,11,28,10,35,5.40
2011,11,28,10,36,5.40
2011,11,28,10,37,5.40
2011,11,28,10,38,5.50
2011,11,28,10,39,5.60
2011,11,28,10,40,5.60
2011,11,28,10,41,5.70
2011,11,28,10,42,5.70
2011,11,28,10,43,5.70
2011,11,28,10,44,5.70
2011,11,28,10,45,5.80
2011,11,28,10,46,5.80
2011,11,28,10,47,5.80
2011,11,28,10,48,5.90
2011,11,28,10,49,5.90
2011,11,28,10,50,6.00
2011,11,28,10,51,6.10
2011,11,28,10,52,6.10
2011,11,28,10,53,6.10
2011,11,28,10,54,6.20
2011,11,28,10,55,6.20
2011,11,28,10,56,6.20
2011,11,28,10,57,6.20
2011,11,28,10,58,6.30
2011,11,28,10,59,6.30
2011,11,28,11,00,6.40
2011,11,28,11,01,6.40
2011,11,28,11,02,6.50
2011,11,28,11,03,6.60
2011,11,28,11,04,6.60
2011,11,28,11,05,6.70
2011,11,28,11,06,6.70
2011,11,28,11,07,6.80
2011,11,28,11,08,6.80
2011,11,28,11,09,6.80
2011,11,28,11,10,6.90
2011,11,28,11,11,6.90
2011,11,28,11,12,7.00
2011,11,28,11,13,7.10
2011,11,28,11,14,7.20
2011,11,28,11,15,7.20
2011,11,28,11,16,7.20
2011,11,28,11,17,7.20
2011,11,28,11,18,7.20
2011,11,28,11,19,7.20
2011,11,28,11,20,7.20
2011,11,28,11,21,7.30
2011,11,28,11,22,7.30
2011,11,28,11,23,7.40
2011,11,28,11,24,7.40
2011,11,28,11,25,7.40
2011,11,28,11,26,7.50
2011,11,28,11,27,7.40
2011,11,28,11,28,7.50
2011,11,28,11,29,7.50
2011,11,28,11,30,7.50
2011,11,28,11,31,7.60
2011,11,28,11,32,7.60
2011,11,28,11,33,7.60
2011,11,28,11,34,7.50
2011,11,28,11,35,7.60
2011,11,28,11,36,7.60
2011,11,28,11,37,7.60
2011,11,28,11,38,7.60
2011,11,28,11,39,7.60
2011,11,28,11,40,7.60
2011,11,28,11,41,7.50
2011,11,28,11,42,7.50
2011,11,28,11,43,7.50
2011,11,28,11,44,7.40
2011,11,28,11,45,7.30
2011,11,28,11,46,7.20
2011,11,28,11,47,7.20
2011,11,28,11,48,7.10
2011,11,28,11,49,7.20
2011,11,28,11,50,7.20
2011,11,28,11,51,7.20
2011,11,28,11,52,7.20
2011,11,28,11,53,7.30
2011,11,28,11,54,7.40
2011,11,28,11,55,7.40
2011,11,28,11,56,7.30
2011,11,28,11,57,7.30
2011,11,28,11,58,7.40
2011,11,28,11,59,7.30
2011,11,28,12,00,7.30
2011,11,28,12,01,7.30
2011,11,28,12,02,7.30
2011,11,28,12,03,7.30
2011,11,28,12,04,7.30
2011,11,28,12,05,7.30
2011,11,28,12,06,7.30
2011,11,28,12,07,7.30
2011,11,28,12,08,7.30
2011,11,28,12,09,7.30
2011,11,28,12,10,7.30
2011,11,28,12,11,7.30
2011,11,28,12,12,7.30
2011,11,28,12,13,7.30
2011,11,28,12,14,7.30
2011,11,28,12,15,7.20
2011,11,28,12,16,7.20
2011,11,28,12,17,7.20
2011,11,28,12,18,7.20
2011,11,28,12,19,7.20
2011,11,28,12,20,7.20
2011,11,28,12,21,7.20
2011,11,28,12,22,7.20
2011,11,28,12,23,7.20
2011,11,28,12,24,7.20
2011,11,28,12,25,7.20
2011,11,28,12,26,7.20
2011,11,28,12,27,7.20
2011,11,28,12,28,7.20
2011,11,28,12,29,7.20
2011,11,28,12,30,7.30
2011,11,28,12,31,7.30
2011,11,28,12,32,7.40
2011,11,28,12,33,7.40
2011,11,28,12,34,7.50
2011,11,28,12,35,7.50
2011,11,28,12,36,7.60
2011,11,28,12,37,7.60
2011,11,28,12,38,7.70
2011,11,28,12,39,7.80
2011,11,28,12,40,7.80
2011,11,28,12,41,7.80
2011,11,28,12,42,7.70
2011,11,28,12,43,7.70
2011,11,28,12,44,7.70
2011,11,28,12,45,7.60
2011,11,28,12,46,7.60
2011,11,28,12,47,7.50
2011,11,28,12,48,7.50
2011,11,28,12,49,7.50
2011,11,28,12,50,7.40
2011,11,28,12,51,7.30
2011,11,28,12,52,7.30
2011,11,28,12,53,7.20
2011,11,28,12,54,7.20
2011,11,28,12,55,7.20
2011,11,28,12,56,7.20
2011,11,28,12,57,7.10
2011,11,28,12,58,7.10
2011,11,28,12,59,7.10
2011,11,28,13,00,7.00
2011,11,28,13,01,7.00
2011,11,28,13,02,7.00
2011,11,28,13,03,7.00
2011,11,28,13,04,7.00
2011,11,28,13,05,7.10
2011,11,28,13,06,7.20
2011,11,28,13,07,7.20
2011,11,28,13,08,7.20
2011,11,28,13,09,7.20
2011,11,28,13,10,7.20
2011,11,28,13,11,7.20
2011,11,28,13,12,7.20
2011,11,28,13,13,7.20
2011,11,28,13,14,7.20
2011,11,28,13,15,7.20
2011,11,28,13,16,7.20
2011,11,28,13,17,7.20
2011,11,28,13,18,7.20
2011,11,28,13,19,7.20
2011,11,28,13,20,7.20
2011,11,28,13,21,7.30
2011,11,28,13,22,7.30
2011,11,28,13,23,7.30
2011,11,28,13,24,7.30
2011,11,28,13,25,7.40
2011,11,28,13,26,7.40
2011,11,28,13,27,7.40
2011,11,28,13,28,7.40
2011,11,28,13,29,7.40
2011,11,28,13,30,7.50
2011,11,28,13,31,7.50
2011,11,28,13,32,7.60
2011,11,28,13,33,7.70
2011,11,28,13,34,7.70
2011,11,28,13,35,7.70
2011,11,28,13,36,7.70
2011,11,28,13,37,7.70
2011,11,28,13,38,7.70
2011,11,28,13,39,7.60
2011,11,28,13,40,7.60
2011,11,28,13,41,7.70
2011,11,28,13,42,7.70
2011,11,28,13,43,7.70
2011,11,28,13,44,7.70
2011,11,28,13,45,7.70
2011,11,28,13,46,7.60
2011,11,28,13,47,7.60
2011,11,28,13,48,7.50
2011,11,28,13,49,7.50
2011,11,28,13,50,7.50
2011,11,28,13,51,7.60
2011,11,28,13,52,7.50
2011,11,28,13,53,7.50
2011,11,28,13,54,7.60
2011,11,28,13,55,7.60
2011,11,28,13,56,7.60
2011,11,28,13,57,7.60
2011,11,28,13,58,7.50
2011,11,28,13,59,7.50
2011,11,28,14,00,7.40
2011,11,28,14,01,7.40
2011,11,28,14,02,7.40
2011,11,28,14,03,7.40
2011,11,28,14,04,7.40
2011,11,28,14,05,7.40
2011,11,28,14,06,7.50
2011,11,28,14,07,7.50
2011,11,28,14,08,7.60
2011,11,28,14,09,7.70
2011,11,28,14,10,7.70
2011,11,28,14,11,7.70
2011,11,28,14,12,7.80
2011,11,28,14,13,7.80
2011,11,28,14,14,7.90
2011,11,28,14,15,7.90
2011,11,28,14,16,7.90
2011,11,28,14,17,7.90
2011,11,28,14,18,7.90
2011,11,28,14,19,7.90
2011,11,28,14,20,7.90
2011,11,28,14,21,7.90
2011,11,28,14,22,7.90
2011,11,28,14,23,7.90
2011,11,28,14,24,7.90
2011,11,28,14,25,7.90
2011,11,28,14,26,7.90
2011,11,28,14,27,7.90
2011,11,28,14,28,7.90
2011,11,28,14,29,7.90
2011,11,28,14,30,7.90
2011,11,28,14,31,7.90
2011,11,28,14,32,7.90
2011,11,28,14,33,7.80
2011,11,28,14,34,7.80
2011,11,28,14,35,7.80
2011,11,28,14,36,7.80
2011,11,28,14,37,7.70
2011,11,28,14,38,7.60
2011,11,28,14,39,7.50
2011,11,28,14,40,7.20
2011,11,28,14,41,7.10
2011,11,28,14,42,6.90
2011,11,28,14,43,6.70
2011,11,28,14,44,6.50
2011,11,28,14,45,6.40
2011,11,28,14,46,6.30
2011,11,28,14,47,6.20
2011,11,28,14,48,6.20
2011,11,28,14,49,6.10
2011,11,28,14,50,6.10
2011,11,28,14,51,6.00
2011,11,28,14,52,6.00
2011,11,28,14,53,5.90
2011,11,28,14,54,5.80
2011,11,28,14,55,5.80
2011,11,28,14,56,5.70
2011,11,28,14,57,5.70
2011,11,28,14,58,5.60
2011,11,28,14,59,5.60
2011,11,28,15,00,5.50
2011,11,28,15,01,5.40
2011,11,28,15,02,5.30
2011,11,28,15,03,5.30
2011,11,28,15,04,5.20
2011,11,28,15,05,5.20
2011,11,28,15,06,5.20
2011,11,28,15,07,5.10
2011,11,28,15,08,5.10
2011,11,28,15,09,5.10
2011,11,28,15,10,5.10
2011,11,28,15,11,5.00
2011,11,28,15,12,5.00
2011,11,28,15,13,4.90
2011,11,28,15,14,4.90
2011,11,28,15,15,4.80
2011,11,28,15,16,4.80
2011,11,28,15,17,4.80
2011,11,28,15,18,4.80
2011,11,28,15,19,4.80
2011,11,28,15,20,4.80
2011,11,28,15,21,4.80
2011,11,28,15,22,4.70
2011,11,28,15,23,4.70
2011,11,28,15,24,4.70
2011,11,28,15,25,4.70
2011,11,28,15,26,4.70
2011,11,28,15,27,4.70
2011,11,28,15,28,4.60
2011,11,28,15,29,4.60
2011,11,28,15,30,4.60
2011,11,28,15,31,4.50
2011,11,28,15,32,4.50
2011,11,28,15,33,4.50
2011,11,28,15,34,4.40
2011,11,28,15,35,4.40
2011,11,28,15,36,4.40
2011,11,28,15,37,4.40
2011,11,28,15,38,4.30
2011,11,28,15,39,4.30
2011,11,28,15,40,4.30
2011,11,28,15,41,4.30
2011,11,28,15,42,4.20
2011,11,28,15,43,4.20
2011,11,28,15,44,4.20
2011,11,28,15,45,4.10
2011,11,28,15,46,4.10
2011,11,28,15,47,4.10
2011,11,28,15,48,4.10
2011,11,28,15,49,4.10
2011,11,28,15,50,4.00
2011,11,28,15,51,4.00
2011,11,28,15,52,3.90
2011,11,28,15,53,3.90
2011,11,28,15,54,3.90
2011,11,28,15,55,3.90
2011,11,28,15,56,3.90
2011,11,28,15,57,3.90
2011,11,28,15,58,3.90
2011,11,28,15,59,3.90
2011,11,28,16,00,3.90
2011,11,28,16,01,3.90
2011,11,28,16,02,3.80
2011,11,28,16,03,3.80
2011,11,28,16,04,3.80
2011,11,28,16,05,3.80
2011,11,28,16,06,3.70
2011,11,28,16,07,3.70
2011,11,28,16,08,3.70
2011,11,28,16,09,3.70
2011,11,28,16,10,3.70
2011,11,28,16,11,3.60
2011,11,28,16,12,3.60
2011,11,28,16,13,3.60
2011,11,28,16,14,3.60
2011,11,28,16,15,3.60
2011,11,28,16,16,3.60
2011,11,28,16,17,3.60
2011,11,28,16,18,3.60
2011,11,28,16,19,3.50
2011,11,28,16,20,3.50
2011,11,28,16,21,3.50
2011,11,28,16,22,3.50
2011,11,28,16,23,3.40
2011,11,28,16,24,3.40
2011,11,28,16,25,3.40
2011,11,28,16,26,3.40
2011,11,28,16,27,3.30
2011,11,28,16,28,3.30
2011,11,28,16,29,3.30
2011,11,28,16,30,3.30
2011,11,28,16,31,3.30
2011,11,28,16,32,3.20
2011,11,28,16,33,3.20
2011,11,28,16,34,3.20
2011,11,28,16,35,3.20
2011,11,28,16,36,3.20
2011,11,28,16,37,3.20
2011,11,28,16,38,3.20
2011,11,28,16,39,3.20
2011,11,28,16,40,3.10
2011,11,28,16,41,3.20
2011,11,28,16,42,3.20
2011,11,28,16,43,3.20
2011,11,28,16,44,3.20
2011,11,28,16,45,3.20
2011,11,28,16,46,3.20
2011,11,28,16,47,3.20
2011,11,28,16,48,3.20
2011,11,28,16,49,3.20
2011,11,28,16,50,3.20
2011,11,28,16,51,3.20
2011,11,28,16,52,3.10
2011,11,28,16,53,3.10
2011,11,28,16,54,3.10
2011,11,28,16,55,3.00
2011,11,28,16,56,3.00
2011,11,28,16,57,2.90
2011,11,28,16,58,2.90
2011,11,28,16,59,2.90
2011,11,28,17,00,2.80
2011,11,28,17,01,2.80
2011,11,28,17,02,2.80
2011,11,28,17,03,2.80
2011,11,28,17,04,2.80
2011,11,28,17,05,2.80
2011,11,28,17,06,2.80
2011,11,28,17,07,2.80
2011,11,28,17,08,2.70
2011,11,28,17,09,2.70
2011,11,28,17,10,2.70
2011,11,28,17,11,2.70
2011,11,28,17,12,2.70
2011,11,28,17,13,2.70
2011,11,28,17,14,2.60
2011,11,28,17,15,2.60
2011,11,28,17,16,2.60
2011,11,28,17,17,2.60
2011,11,28,17,18,2.60
2011,11,28,17,19,2.60
2011,11,28,17,20,2.60
2011,11,28,17,21,2.60
2011,11,28,17,22,2.60
2011,11,28,17,23,2.60
2011,11,28,17,24,2.50
2011,11,28,17,25,2.50
2011,11,28,17,26,2.50
2011,11,28,17,27,2.40
2011,11,28,17,28,2.40
2011,11,28,17,29,2.40
2011,11,28,17,30,2.40
2011,11,28,17,31,2.40
2011,11,28,17,32,2.30
2011,11,28,17,33,2.30
2011,11,28,17,34,2.30
2011,11,28,17,35,2.30
2011,11,28,17,36,2.30
2011,11,28,17,37,2.30
2011,11,28,17,38,2.20
2011,11,28,17,39,2.20
2011,11,28,17,40,2.20
2011,11,28,17,41,2.20
2011,11,28,17,42,2.10
2011,11,28,17,43,2.10
2011,11,28,17,44,2.10
2011,11,28,17,45,2.10
2011,11,28,17,46,2.10
2011,11,28,17,47,2.10
2011,11,28,17,48,2.10
2011,11,28,17,49,2.10
2011,11,28,17,50,2.00
2011,11,28,17,51,2.00
2011,11,28,17,52,2.00
2011,11,28,17,53,2.00
2011,11,28,17,54,2.00
2011,11,28,17,55,1.90
2011,11,28,17,56,1.90
2011,11,28,17,57,1.90
2011,11,28,17,58,2.00
2011,11,28,17,59,2.00
2011,11,28,18,00,2.00
2011,11,28,18,01,2.00
2011,11,28,18,02,2.00
2011,11,28,18,03,2.00
2011,11,28,18,04,2.00
2011,11,28,18,05,2.00
2011,11,28,18,06,1.90